QPF
0.00 0.00 0.00 0.00 0.00 0.00 0.00 0.00 0.00 0.00 0.00 0.00 0.00 0.00 0.00 0.00 0.00 0.00 0.00 0.00 0.00 0.00 0.00 0.00 0.00 0.00 0.00 0.00 0.00 0.00 0.00 0.00 0.00 0.00 0.00 0.00 0.00 0.00 0.00 0.00 0.00 0.00 0.00 0.00 0.00
0.00 0.00 0.00 0.00 0.00 0.00 0.00 0.00 0.00 0.00 0.00 0.00 0.00 0.00 0.00 0.00 0.00 0.00 0.00 0.00 0.00 0.00 0.00 0.00 0.00 0.00 0.00 0.00 0.00 0.00 0.00 0.00 0.00 0.00 0.00 0.00 0.00 0.00 0.00 0.00 0.00 0.00 0.00 0.00 0.00
0.00 0.00 0.00 0.00 0.00 0.00 0.00 0.00 0.00 0.00 0.00 0.00 0.00 0.00 0.00 0.00 0.00 0.00 0.00 0.00 0.00 0.00 0.00 0.00 0.00 0.00 0.00 0.00 0.00 0.00 0.00 0.00 0.00 0.00 0.00 0.00 0.00 0.00 0.00 0.00 0.00 0.00 0.00 0.00 0.00
0.00 0.00 0.00 0.00 0.00 0.00 0.00 0.00 0.00 0.00 0.00 0.00 0.00 0.00 0.00 0.00 0.00 0.00 0.00 0.00 0.00 0.00 0.00 0.00 0.00 0.00 0.00 0.00 0.00 0.00 0.00 0.00 0.00 0.00 0.00 0.00 0.00 0.00 0.00 0.00 0.00 0.00 0.00 0.00 0.00
0.00 0.00 0.00 0.00 0.00 0.00 0.00 0.00 0.00 0.00 0.00 0.00 0.00 0.00 0.00 0.00 0.00 0.00 0.00 0.00 0.00 0.00 0.00 0.00 0.00 0.00 0.00 0.00 0.00 0.00 0.00 0.00 0.00 0.00 0.00 0.00 0.00 0.00 0.00 0.00 0.00 0.00 0.00 0.00 0.00
0.00 0.00 0.00 0.00 0.00 0.00 0.00 0.00 0.00 0.00 0.00 0.00 0.00 0.00 0.00 0.00 0.00 0.00 0.00 0.00 0.00 0.00 0.00 0.00 0.00 0.00 0.00 0.00 0.00 0.00 0.00 0.00 0.00 0.00 0.00 0.00 0.00 0.00 0.00 0.00 0.00 0.00 0.00 0.00 0.00
0.00 0.00 0.00 0.00 0.00 0.00 0.00 0.00 0.00 0.00 0.00 0.00 0.00 0.00 0.00 0.00 0.00 0.00 0.00 0.00 0.00 0.00 0.00 0.00 0.00 0.00 0.00 0.00 0.00 0.00 0.00 0.00 0.00 0.00 0.00 0.00 0.00 0.00 0.00 0.00 0.00 0.00 0.00 0.00 0.00
0.00 0.00 0.00 0.00 0.00 0.00 0.00 0.00 0.00 0.00 0.00 0.00 0.00 0.00 0.00 0.00 0.00 0.00 0.00 0.00 0.00 0.00 0.00 0.00 0.00 0.00 0.00 0.00 0.00 0.00 0.00 0.00 0.00 0.00 0.00 0.00 0.00 0.00 0.00 0.00 0.00 0.00 0.00 0.00 0.00
0.00 0.00 0.00 0.00 0.00 0.00 0.00 0.00 0.00 0.00 0.00 0.00 0.00 0.00 0.00 0.00 0.00 0.00 0.00 0.00 0.00 0.00 0.00 0.00 0.00 0.00 0.00 0.00 0.00 0.00 0.00 0.00 0.00 0.00 0.00 0.00 0.00 0.00 0.00 0.00 0.00 0.00 0.00 0.00 0.00
0.00 0.00 0.00 0.00 0.00 0.00 0.00 0.00 0.00 0.00 0.00 0.00 0.00 0.00 0.00 0.00 0.00 0.00 0.00 0.00 0.00 0.00 0.00 0.00 0.00 0.00 0.00 0.00 0.00 0.00 0.00 0.00 0.00 0.00 0.00 0.00 0.00 0.00 0.00 0.00 0.00 0.00 0.00 0.00 0.00
0.00 0.00 0.00 0.00 0.00 0.00 0.00 0.00 0.00 0.00 0.00 0.00 0.00 0.00 0.00 0.00 0.00 0.00 0.00 0.00 0.00 0.00 0.00 0.00 0.00 0.00 0.00 0.00 0.00 0.00 0.00 0.00 0.00 0.00 0.00 0.00 0.00 0.00 0.00 0.00 0.00 0.00 0.00 0.00 0.00
0.00 0.00 0.00 0.00 0.00 0.00 0.00 0.00 0.00 0.00 0.00 0.00 0.00 0.00 0.00 0.00 0.00 0.00 0.00 0.00 0.00 0.00 0.00 0.00 0.00 0.00 0.00 0.00 0.00 0.00 0.00 0.00 0.00 0.00 0.00 0.00 0.00 0.00 0.00 0.00 0.00 0.00 0.00 0.00 0.00
0.00 0.00 0.00 0.00 0.00 0.00 0.00 0.00 0.00 0.00 0.00 0.00 0.00 0.00 0.00 0.00 0.00 0.00 0.00 0.00 0.00 0.00 0.00 0.00 0.00 0.00 0.00 0.00 0.00 0.00 0.00 0.00 0.00 0.00 0.00 0.00 0.00 0.00 0.00 0.00 0.00 0.00 0.00 0.00 0.00
0.00 0.00 0.00 0.00 0.00 0.00 0.00 0.00 0.00 0.00 0.00 0.00 0.00 0.00 0.00 0.00 0.00 0.00 0.00 0.00 0.00 0.00 0.00 0.00 0.00 0.00 0.00 0.00 0.00 0.00 0.00 0.00 0.00 0.00 0.00 0.00 0.00 0.00 0.00 0.00 0.00 0.00 0.00 0.00 0.00
0.00 0.00 0.00 0.00 0.00 0.00 0.00 0.00 0.00 0.00 0.00 0.00 0.00 0.00 0.00 0.00 0.00 0.00 0.00 0.00 0.00 0.00 0.00 0.00 0.00 0.00 0.00 0.00 0.00 0.00 0.00 0.00 0.00 0.00 0.00 0.00 0.00 0.00 0.00 0.00 0.00 0.00 0.00 0.00 0.00
0.00 0.00 0.00 0.00 0.00 0.00 0.00 0.00 0.00 0.00 0.00 0.00 0.00 0.00 0.00 0.00 0.00 0.00 0.00 0.00 0.00 0.00 0.00 0.00 0.00 0.00 0.00 0.00 0.00 0.00 0.00 0.00 0.00 0.00 0.00 0.00 0.00 0.00 0.00 0.00 0.00 0.00 0.00 0.00 0.00
0.00 0.00 0.00 0.00 0.00 0.00 0.00 0.00 0.00 0.00 0.00 0.00 0.00 0.00 0.00 0.00 0.00 0.00 0.00 0.00 0.00 0.00 0.00 0.00 0.00 0.00 0.00 0.00 0.00 0.00 0.00 0.00 0.00 0.00 0.00 0.00 0.00 0.00 0.00 0.00 0.00 0.00 0.00 0.00 0.00
0.00 0.00 0.00 0.00 0.00 0.00 0.00 0.00 0.00 0.00 0.00 0.00 0.00 0.00 0.00 0.00 0.00 0.00 0.00 0.00 0.00 0.00 0.00 0.00 0.00 0.00 0.00 0.00 0.00 0.00 0.00 0.00 0.00 0.00 0.00 0.00 0.00 0.00 0.00 0.00 0.00 0.00 0.00 0.00 0.00
0.00 0.00 0.00 0.00 0.00 0.00 0.00 0.00 0.00 0.00 0.00 0.00 0.00 0.00 0.00 0.00 0.00 0.00 0.00 0.00 0.00 0.00 0.00 0.00 0.00 0.00 0.00 0.00 0.00 0.00 0.00 0.00 0.00 0.00 0.00 0.00 0.00 0.00 0.00 0.00 0.00 0.00 0.00 0.00 0.00
0.00 0.00 0.00 0.00 0.00 0.00 0.00 0.00 0.00 0.00 0.00 0.00 0.00 0.00 0.00 0.00 0.00 0.00 0.00 0.00 0.00 0.00 0.00 0.00 0.00 0.00 0.00 0.00 0.00 0.00 0.00 0.00 0.00 0.00 0.00 0.00 0.00 0.00 0.00 0.00 0.00 0.00 0.00 0.00 0.00
0.00 0.00 0.00 0.00 0.00 0.00 0.00 0.00 0.00 0.00 0.00 0.00 0.00 0.00 0.00 0.00 0.00 0.00 0.00 0.00 0.00 0.00 0.00 0.00 0.00 0.00 0.00 0.00 0.00 0.00 0.00 0.00 0.00 0.00 0.00 0.00 0.00 0.00 0.00 0.00 0.00 0.00 0.00 0.00 0.00
0.00 0.00 0.00 0.00 0.00 0.00 0.00 0.00 0.00 0.00 0.00 0.00 0.00 0.00 0.00 0.00 0.00 0.00 0.00 0.00 0.00 0.00 0.00 0.00 0.00 0.00 0.00 0.00 0.00 0.00 0.00 0.00 0.00 0.00 0.00 0.00 0.00 0.00 0.00 0.00 0.00 0.00 0.00 0.00 0.00
0.00 0.00 0.00 0.00 0.00 0.00 0.00 0.00 0.00 0.00 0.00 0.00 0.00 0.00 0.00 0.00 0.00 0.00 0.00 0.00 0.00 0.00 0.00 0.00 0.00 0.00 0.00 0.00 0.00 0.00 0.00 0.00 0.00 0.00 0.00 0.00 0.00 0.00 0.00 0.00 0.00 0.00 0.00 0.00 0.00
0.00 0.00 0.00 0.00 0.00 0.00 0.00 0.00 0.00 0.00 0.00 0.00 0.00 0.00 0.00 0.00 0.00 0.00 0.00 0.00 0.00 0.00 0.00 0.00 0.00 0.00 0.00 0.00 0.00 0.00 0.00 0.00 0.00 0.00 0.00 0.00 0.00 0.00 0.00 0.00 0.00 0.00 0.00 0.00 0.00
0.00 0.00 0.00 0.00 0.00 0.00 0.00 0.00 0.00 0.00 0.00 0.00 0.00 0.00 0.00 0.00 0.00 0.00 0.00 0.00 0.00 0.00 0.00 0.00 0.00 0.00 0.00 0.00 0.00 0.00 0.00 0.00 0.00 0.00 0.00 0.00 0.00 0.00 0.00 0.00 0.00 0.00 0.00 0.00 0.00
0.00 0.00 0.00 0.00 0.00 0.00 0.00 0.00 0.00 0.00 0.00 0.00 0.00 0.00 0.00 0.00 0.00 0.00 0.00 0.00 0.00 0.00 0.00 0.00 0.00 0.00 0.00 0.00 0.00 0.00 0.00 0.00 0.00 0.00 0.00 0.00 0.00 0.00 0.00 0.00 0.00 0.00 0.00 0.00 0.00
0.00 0.00 0.00 0.00 0.00 0.00 0.00 0.00 0.00 0.00 0.00 0.00 0.00 0.00 0.00 0.00 0.00 0.00 0.00 0.00 0.00 0.00 0.00 0.00 0.00 0.00 0.00 0.00 0.00 0.00 0.00 0.00 0.00 0.00 0.00 0.00 0.00 0.00 0.00 0.00 0.00 0.00 0.00 0.00 0.00
MSLP
1017.62 1017.59 1017.28 1016.81 1016.51 1016.06 1015.67 1015.17 1015.01 1014.81 1014.51 1014.31 1014.05 1013.80 1013.58 1013.26 1012.87 1012.35 1010.10 1009.29 1009.30 1009.65 1009.63 1008.81 1008.20 1007.60 1006.97 1006.14 1006.03 1005.40 1003.50 1003.44 1003.62 1003.46 1003.68 1004.09 1004.16 1005.24 1005.55 1005.93 1006.51 1006.95 1007.14 1007.86 1009.33
1018.05 1017.69 1017.36 1016.93 1016.60 1016.07 1015.64 1015.09 1014.95 1014.59 1014.50 1014.19 1013.88 1013.58 1013.45 1013.02 1011.76 1010.00 1009.04 1009.33 1009.61 1009.57 1008.82 1008.10 1007.57 1007.04 1006.02 1005.70 1005.41 1004.20 1002.87 1003.48 1003.89 1003.98 1003.94 1004.10 1004.41 1004.63 1005.08 1005.54 1006.41 1007.03 1007.89 1008.48 1009.41
1018.24 1017.87 1017.39 1016.97 1016.48 1016.07 1015.57 1015.20 1014.93 1014.53 1014.29 1014.03 1013.72 1013.50 1013.27 1012.92 1010.49 1008.58 1009.08 1009.37 1009.50 1009.45 1008.58 1008.00 1007.55 1006.73 1005.78 1005.59 1005.17 1004.50 1003.38 1004.29 1004.22 1004.37 1004.25 1003.93 1003.83 1004.36 1004.32 1004.51 1004.93 1006.18 1007.46 1008.48 1009.17
1018.25 1017.81 1017.29 1016.89 1016.43 1016.09 1015.65 1015.04 1014.86 1014.53 1014.12 1013.98 1013.58 1013.20 1012.99 1011.86 1009.17 1008.83 1009.40 1009.40 1009.52 1008.84 1008.43 1007.81 1007.22 1006.35 1005.61 1005.19 1005.42 1004.72 1004.76 1004.81 1004.42 1004.38 1004.15 1003.80 1003.88 1003.78 1004.03 1003.99 1005.15 1005.81 1007.12 1007.98 1008.74
1018.51 1018.03 1017.60 1016.94 1016.42 1015.93 1015.33 1014.93 1014.61 1014.39 1014.17 1013.71 1013.44 1013.07 1012.63 1010.16 1008.45 1009.00 1009.54 1009.58 1009.23 1008.71 1007.98 1007.48 1006.85 1006.41 1005.62 1005.62 1005.48 1005.03 1004.86 1004.84 1004.43 1004.18 1004.13 1004.03 1003.85 1003.81 1003.82 1004.27 1005.22 1006.05 1006.91 1007.56 1008.33
1018.59 1018.13 1017.64 1017.15 1016.52 1016.04 1015.51 1015.00 1014.57 1014.19 1013.95 1013.53 1013.39 1013.18 1011.62 1009.16 1008.48 1008.75 1008.89 1009.03 1008.64 1008.32 1007.96 1007.56 1007.12 1006.99 1006.27 1005.90 1005.54 1005.36 1005.08 1004.62 1004.19 1003.91 1004.01 1003.83 1003.43 1004.11 1004.10 1004.79 1005.10 1006.12 1006.76 1007.30 1007.93
1018.58 1018.12 1017.65 1017.04 1016.52 1015.99 1015.33 1014.87 1014.36 1014.08 1013.47 1013.47 1013.40 1012.68 1010.71 1008.87 1008.57 1008.69 1008.76 1008.52 1008.68 1008.18 1007.77 1007.90 1007.59 1006.84 1006.50 1005.78 1005.95 1005.30 1004.69 1003.87 1003.59 1003.70 1003.50 1003.77 1002.80 1003.43 1004.18 1004.89 1005.20 1005.95 1006.64 1007.23 1007.91
1018.55 1018.03 1017.50 1016.80 1016.35 1015.70 1015.26 1014.65 1014.01 1013.61 1013.35 1013.62 1013.32 1011.95 1009.17 1008.89 1008.72 1008.83 1008.65 1008.67 1008.75 1008.50 1008.05 1007.99 1007.66 1006.90 1006.38 1006.14 1005.29 1004.58 1004.18 1003.04 1003.09 1003.69 1003.91 1003.83 1002.47 1003.69 1004.32 1004.63 1005.01 1006.05 1006.82 1007.60 1008.39
1018.54 1017.96 1017.30 1016.71 1016.20 1015.52 1015.06 1014.49 1014.12 1013.89 1013.72 1013.63 1012.71 1011.18 1008.44 1009.25 1008.55 1008.15 1008.35 1008.04 1008.35 1008.39 1008.24 1008.08 1007.38 1006.58 1006.21 1005.36 1004.45 1003.98 1003.10 1002.94 1003.27 1003.96 1003.86 1003.68 1002.95 1003.68 1004.38 1004.76 1005.09 1006.33 1007.10 1007.78 1008.63
1018.48 1017.89 1017.25 1016.48 1015.82 1015.33 1014.72 1014.20 1014.07 1013.87 1013.38 1012.74 1011.90 1010.72 1008.64 1007.80 1007.85 1008.09 1008.40 1008.29 1007.87 1007.99 1007.86 1007.55 1006.88 1006.08 1005.68 1005.02 1003.63 1003.38 1003.35 1003.37 1003.61 1003.72 1003.75 1003.29 1002.97 1003.16 1004.28 1004.69 1005.15 1006.08 1007.16 1007.76 1008.59
1018.41 1017.80 1017.11 1016.36 1015.54 1014.95 1013.86 1013.59 1013.53 1012.54 1011.54 1009.40 1008.86 1008.42 1007.89 1007.83 1007.91 1007.75 1008.03 1008.02 1007.61 1007.42 1006.75 1007.12 1006.30 1005.24 1005.43 1005.42 1005.32 1004.99 1004.48 1004.00 1003.80 1004.22 1004.08 1003.28 1003.22 1002.99 1004.06 1004.48 1004.99 1005.97 1007.09 1007.69 1008.36
1018.39 1017.68 1016.97 1016.12 1015.33 1014.54 1013.99 1011.68 1012.23 1012.19 1009.97 1008.86 1008.69 1008.31 1008.11 1007.73 1007.11 1007.36 1007.79 1007.25 1007.04 1006.53 1006.96 1006.85 1005.73 1005.78 1006.33 1006.21 1005.82 1005.23 1004.67 1004.04 1003.91 1004.39 1004.17 1003.23 1002.92 1002.81 1003.64 1004.17 1004.76 1005.62 1006.80 1007.27 1008.26
1018.30 1017.60 1016.89 1015.92 1014.93 1013.99 1012.79 1012.41 1012.42 1012.02 1009.89 1008.14 1007.75 1007.24 1007.22 1007.48 1006.38 1006.61 1007.12 1006.72 1006.48 1006.24 1006.34 1005.75 1005.97 1006.42 1006.33 1006.09 1005.68 1005.05 1004.63 1004.33 1004.27 1004.08 1003.70 1003.51 1002.30 1002.51 1003.16 1004.24 1004.99 1005.70 1006.12 1006.66 1007.73
1018.26 1017.54 1016.82 1015.82 1014.96 1013.72 1012.38 1012.58 1012.25 1012.06 1009.01 1007.37 1006.90 1006.53 1007.04 1006.65 1006.23 1006.09 1006.61 1006.50 1006.48 1006.02 1006.24 1005.97 1005.94 1006.37 1006.16 1005.67 1005.53 1004.52 1005.10 1005.03 1004.47 1003.89 1002.76 1003.50 1001.89 1002.02 1002.55 1003.26 1004.30 1004.85 1005.56 1006.08 1007.29
1018.15 1017.46 1016.87 1016.76 1015.01 1013.08 1012.77 1012.50 1012.20 1011.70 1007.61 1006.63 1006.38 1006.67 1006.36 1005.89 1005.43 1006.07 1006.38 1006.51 1005.89 1006.15 1006.50 1005.50 1005.89 1006.10 1005.83 1005.28 1005.40 1004.65 1005.41 1005.07 1004.59 1003.86 1003.58 1002.63 1002.47 1001.40 1002.29 1002.32 1003.33 1004.11 1004.92 1005.94 1006.93
1017.90 1017.34 1016.79 1015.56 1014.62 1013.01 1012.91 1012.49 1011.99 1009.82 1006.54 1005.86 1005.90 1005.95 1005.91 1005.60 1005.49 1006.13 1006.46 1006.54 1006.11 1006.17 1006.11 1005.48 1006.01 1005.71 1005.10 1005.49 1005.44 1005.51 1005.30 1004.86 1004.43 1003.64 1002.86 1002.58 1002.79 1000.92 1001.51 1002.54 1003.13 1003.95 1004.68 1005.61 1006.62
1017.41 1016.80 1016.55 1015.03 1012.91 1013.21 1012.80 1011.51 1009.70 1007.40 1006.54 1005.65 1005.12 1005.17 1004.66 1004.81 1005.05 1005.27 1005.69 1005.76 1005.38 1005.56 1005.19 1005.01 1005.01 1005.24 1005.44 1005.15 1005.32 1005.38 1004.70 1003.64 1002.93 1002.55 1002.30 1003.21 1002.88 1001.79 1002.08 1002.74 1003.24 1003.62 1004.49 1005.58 1006.46
1016.68 1016.08 1015.37 1014.29 1013.74 1013.43 1012.09 1010.36 1008.16 1006.67 1006.20 1006.23 1005.60 1005.24 1004.53 1004.33 1004.44 1004.82 1004.99 1004.95 1005.02 1004.99 1004.35 1004.05 1004.12 1004.70 1004.80 1004.68 1004.06 1004.39 1004.10 1003.25 1002.29 1002.05 1002.17 1003.33 1002.31 1001.68 1002.44 1002.92 1003.32 1003.93 1004.42 1005.32 1006.21
1016.05 1014.52 1013.79 1013.54 1013.70 1013.35 1011.31 1008.90 1006.90 1006.91 1006.83 1006.24 1005.76 1005.03 1004.49 1004.57 1004.28 1004.43 1004.28 1004.13 1004.31 1004.80 1004.27 1003.86 1003.83 1004.60 1004.67 1004.58 1004.64 1004.11 1004.21 1003.44 1003.08 1003.10 1002.92 1001.85 1001.95 1001.86 1002.23 1002.49 1003.09 1003.56 1004.30 1005.22 1006.25
1015.30 1013.58 1013.11 1013.49 1013.39 1012.47 1010.30 1008.00 1007.69 1007.77 1007.39 1006.96 1005.68 1005.37 1004.15 1004.22 1004.12 1004.02 1003.95 1003.81 1004.03 1004.37 1004.52 1004.07 1004.04 1004.00 1004.14 1004.57 1004.64 1004.31 1003.67 1003.65 1003.19 1002.29 1002.05 1001.35 1001.81 1001.12 1001.74 1001.91 1002.84 1003.69 1004.44 1005.56 1006.58
1014.96 1012.64 1013.48 1013.40 1013.08 1011.19 1008.88 1007.91 1008.32 1008.25 1007.77 1007.07 1006.37 1005.64 1004.99 1004.60 1003.98 1003.61 1003.69 1004.43 1004.26 1004.21 1004.40 1004.30 1004.60 1004.00 1004.35 1003.69 1003.08 1004.03 1003.68 1003.44 1002.79 1002.58 1001.49 1001.02 1000.65 1001.36 1001.63 1001.87 1002.65 1003.77 1004.66 1005.84 1006.78
1014.20 1012.03 1013.20 1013.04 1011.56 1010.02 1008.72 1008.85 1009.31 1008.12 1008.11 1007.49 1007.16 1006.61 1005.74 1005.66 1004.66 1004.16 1004.05 1004.01 1004.94 1004.65 1004.57 1004.66 1004.54 1003.74 1003.23 1003.15 1003.54 1003.14 1002.79 1002.85 1002.42 1002.48 1002.16 1001.73 1000.59 1001.06 1001.63 1002.25 1003.02 1003.85 1004.78 1005.95 1006.87
1013.70 1012.75 1012.78 1012.42 1010.22 1009.80 1009.77 1009.19 1008.73 1008.35 1008.02 1007.73 1007.37 1007.30 1006.98 1006.13 1005.70 1005.22 1005.03 1005.47 1005.39 1004.94 1004.77 1005.26 1004.55 1003.68 1003.15 1003.27 1003.61 1003.09 1002.85 1003.11 1003.02 1003.01 1001.77 1001.34 1000.37 1000.94 1001.68 1002.56 1003.43 1004.05 1005.13 1006.45 1007.35
1014.24 1012.18 1012.10 1011.67 1011.33 1009.96 1009.60 1009.03 1008.81 1009.06 1008.44 1008.30 1007.87 1007.86 1007.28 1006.69 1006.57 1005.98 1005.60 1005.75 1005.91 1005.59 1005.98 1005.64 1004.53 1003.67 1002.09 1002.23 1002.18 1002.37 1002.15 1002.38 1002.57 1001.93 1000.88 1000.84 1000.57 1000.66 1001.29 1002.20 1003.56 1004.25 1005.67 1006.75 1007.46
1014.50 1013.13 1013.05 1011.30 1011.00 1010.50 1010.40 1009.67 1008.91 1008.86 1008.89 1008.79 1008.48 1008.08 1007.67 1007.20 1006.88 1006.49 1006.45 1006.11 1006.14 1006.53 1006.11 1005.67 1004.81 1003.94 1003.17 1002.67 1002.60 1002.10 1001.61 1001.87 1001.92 1001.64 1000.92 1000.16 1000.68 1000.88 1001.71 1002.66 1003.20 1004.46 1005.86 1006.75 1007.52
1014.94 1013.88 1013.54 1012.42 1012.03 1011.10 1010.80 1009.98 1009.46 1009.40 1009.11 1008.75 1008.46 1008.52 1008.50 1007.96 1007.46 1006.91 1007.39 1006.87 1006.18 1006.37 1006.09 1006.19 1005.28 1004.53 1003.37 1002.58 1002.57 1002.16 1001.77 1001.35 1001.51 1001.22 1001.18 1000.99 1000.93 1001.64 1002.76 1003.37 1003.76 1004.65 1005.85 1006.62 1007.42
1016.65 1016.00 1014.71 1013.15 1012.15 1011.37 1010.43 1010.51 1010.33 1010.53 1010.22 1009.54 1009.61 1009.22 1009.02 1008.91 1009.48 1009.08 1008.77 1008.35 1007.91 1007.72 1006.91 1006.50 1005.45 1004.81 1003.18 1002.79 1002.50 1002.03 1001.48 1001.11 1001.04 1001.15 1001.08 1000.69 1001.23 1002.12 1002.71 1003.59 1004.42 1005.08 1005.83 1006.49 1007.39
Thickness
5736 5738 5743 5749 5754 5760 5766 5773 5776 5780 5784 5788 5793 5798 5801 5806 5810 5818 5829 5841 5843 5842 5842 5847 5849 5850 5855 5848 5851 5856 5836 5818 5823 5828 5833 5853 5844 5847 5852 5835 5834 5835 5831 5829 5821
5730 5735 5741 5747 5751 5759 5766 5773 5775 5781 5784 5788 5794 5799 5802 5808 5819 5829 5844 5842 5842 5843 5844 5840 5836 5846 5844 5846 5848 5848 5845 5831 5845 5846 5839 5847 5844 5845 5839 5833 5825 5826 5829 5829 5820
5725 5732 5739 5745 5751 5757 5764 5770 5775 5780 5785 5789 5794 5798 5803 5807 5824 5835 5842 5841 5842 5844 5848 5848 5847 5845 5838 5846 5845 5846 5837 5841 5844 5849 5851 5849 5850 5854 5842 5831 5842 5827 5824 5823 5819
5723 5730 5737 5743 5750 5755 5761 5769 5773 5779 5785 5788 5794 5800 5804 5815 5810 5840 5839 5841 5841 5847 5845 5842 5840 5834 5833 5831 5842 5831 5841 5840 5847 5852 5850 5847 5855 5848 5848 5849 5853 5848 5836 5828 5818
5718 5724 5732 5740 5747 5754 5762 5768 5773 5778 5783 5789 5794 5800 5808 5819 5826 5840 5837 5838 5841 5844 5840 5836 5833 5833 5826 5832 5836 5831 5837 5843 5852 5854 5852 5856 5848 5847 5849 5860 5857 5848 5838 5829 5822
5713 5720 5728 5735 5744 5751 5758 5765 5771 5777 5782 5788 5792 5796 5809 5808 5839 5839 5839 5839 5840 5840 5838 5840 5834 5838 5831 5830 5829 5837 5837 5841 5851 5852 5851 5845 5852 5847 5851 5856 5851 5841 5834 5832 5826
5708 5716 5724 5733 5741 5749 5758 5764 5771 5776 5783 5786 5789 5798 5805 5815 5836 5838 5839 5838 5839 5840 5833 5840 5842 5836 5835 5828 5839 5838 5827 5844 5849 5851 5848 5853 5844 5841 5855 5852 5844 5838 5834 5832 5826
5704 5712 5720 5730 5738 5748 5755 5763 5771 5777 5781 5781 5786 5798 5806 5829 5832 5832 5836 5832 5837 5841 5840 5843 5845 5837 5833 5840 5838 5831 5834 5823 5847 5847 5847 5845 5831 5844 5855 5849 5842 5834 5830 5824 5819
5699 5708 5718 5727 5735 5745 5753 5761 5766 5771 5776 5778 5789 5796 5805 5824 5821 5834 5835 5827 5830 5833 5836 5840 5839 5830 5832 5822 5821 5830 5815 5822 5827 5843 5839 5837 5828 5844 5852 5845 5839 5829 5824 5820 5814
5694 5703 5713 5723 5734 5743 5752 5759 5763 5768 5775 5780 5787 5785 5808 5810 5823 5827 5832 5829 5823 5822 5819 5822 5823 5817 5820 5818 5803 5814 5815 5821 5813 5833 5836 5832 5834 5849 5845 5842 5836 5830 5822 5819 5811
5688 5698 5708 5719 5731 5741 5752 5762 5766 5772 5778 5795 5797 5797 5804 5818 5825 5819 5826 5820 5822 5816 5803 5812 5804 5803 5811 5817 5818 5814 5810 5809 5824 5832 5824 5828 5829 5843 5841 5840 5835 5828 5818 5817 5812
5682 5693 5703 5715 5728 5739 5747 5765 5761 5765 5772 5793 5793 5796 5805 5814 5803 5811 5824 5807 5805 5796 5803 5799 5797 5814 5812 5811 5809 5811 5807 5811 5826 5827 5823 5828 5826 5843 5839 5836 5836 5829 5819 5819 5811
5675 5686 5698 5711 5725 5737 5748 5752 5759 5764 5766 5784 5792 5796 5800 5805 5803 5804 5813 5810 5801 5797 5798 5797 5803 5810 5805 5803 5801 5810 5807 5809 5807 5822 5831 5821 5822 5830 5839 5833 5831 5829 5829 5826 5814
5667 5678 5691 5706 5719 5731 5742 5748 5755 5760 5763 5774 5781 5793 5797 5805 5792 5821 5820 5809 5798 5793 5797 5798 5813 5799 5799 5800 5807 5801 5815 5810 5810 5808 5803 5821 5797 5822 5833 5829 5827 5829 5826 5825 5815
5662 5673 5684 5691 5710 5726 5733 5742 5750 5751 5738 5774 5778 5804 5801 5794 5804 5799 5820 5806 5792 5791 5792 5795 5794 5791 5790 5802 5811 5806 5812 5808 5809 5807 5803 5813 5800 5826 5832 5825 5825 5829 5827 5822 5817
5659 5668 5679 5693 5704 5721 5726 5736 5741 5737 5731 5762 5779 5777 5777 5789 5793 5796 5795 5808 5811 5792 5796 5801 5811 5806 5808 5809 5810 5812 5804 5806 5808 5808 5785 5805 5797 5820 5822 5821 5824 5826 5826 5821 5814
5658 5668 5675 5689 5711 5713 5721 5731 5726 5726 5760 5757 5767 5779 5784 5780 5783 5788 5782 5781 5781 5765 5772 5793 5797 5808 5809 5796 5806 5800 5794 5778 5779 5783 5783 5798 5791 5810 5827 5828 5825 5824 5822 5817 5815
5659 5668 5680 5690 5698 5706 5718 5719 5706 5741 5744 5758 5763 5769 5768 5782 5783 5782 5779 5775 5793 5788 5783 5776 5769 5792 5807 5799 5798 5795 5797 5782 5761 5776 5788 5792 5781 5807 5827 5830 5829 5825 5824 5819 5813
5659 5675 5683 5690 5694 5701 5711 5706 5728 5733 5742 5746 5754 5755 5761 5771 5777 5777 5780 5782 5790 5790 5773 5775 5774 5799 5801 5806 5803 5789 5775 5810 5786 5792 5775 5803 5805 5823 5826 5823 5822 5821 5819 5813 5809
5659 5675 5682 5684 5690 5699 5706 5712 5723 5731 5737 5740 5740 5751 5755 5763 5766 5771 5773 5791 5785 5795 5800 5787 5764 5794 5797 5801 5799 5792 5808 5775 5785 5760 5754 5790 5782 5796 5808 5817 5818 5812 5811 5807 5804
5656 5674 5671 5677 5684 5694 5700 5714 5715 5726 5734 5733 5736 5743 5752 5755 5769 5772 5772 5776 5788 5789 5796 5790 5774 5774 5784 5782 5786 5779 5778 5786 5795 5788 5779 5773 5790 5819 5815 5821 5815 5809 5809 5803 5799
5653 5664 5665 5672 5676 5692 5698 5702 5701 5719 5726 5729 5733 5736 5743 5746 5755 5762 5761 5772 5781 5786 5770 5786 5775 5762 5776 5795 5798 5797 5789 5789 5775 5769 5785 5782 5796 5832 5826 5821 5816 5811 5809 5805 5800
5646 5651 5660 5665 5669 5675 5682 5691 5703 5706 5713 5719 5721 5729 5735 5739 5736 5750 5755 5767 5774 5777 5771 5772 5765 5753 5762 5777 5781 5777 5788 5787 5786 5782 5777 5771 5795 5831 5826 5816 5812 5809 5806 5797 5793
5635 5643 5649 5657 5661 5671 5672 5680 5685 5697 5705 5712 5716 5722 5725 5728 5737 5737 5744 5756 5765 5769 5755 5769 5765 5762 5769 5769 5785 5769 5783 5788 5781 5775 5790 5789 5799 5816 5820 5815 5807 5808 5801 5793 5790
5624 5629 5631 5643 5649 5658 5662 5671 5678 5680 5695 5701 5700 5710 5714 5713 5723 5727 5737 5747 5755 5742 5758 5761 5746 5764 5773 5781 5779 5781 5786 5783 5776 5787 5783 5801 5794 5811 5813 5809 5812 5808 5798 5791 5786
5612 5621 5625 5632 5635 5645 5641 5658 5666 5673 5683 5685 5691 5700 5706 5705 5717 5719 5723 5731 5739 5749 5750 5752 5741 5754 5757 5777 5774 5768 5781 5788 5786 5792 5791 5796 5794 5814 5809 5807 5805 5801 5793 5788 5786
5586 5594 5606 5607 5627 5636 5647 5650 5654 5661 5669 5681 5681 5689 5692 5699 5702 5711 5718 5721 5726 5722 5732 5735 5743 5741 5744 5766 5766 5751 5774 5783 5789 5794 5793 5785 5800 5805 5803 5797 5794 5794 5793 5790 5786